• In Belarus
  • List of Countries
  • For 7 days
  • Water Temperature
  • Satellite Maps
  • Weather Map
  • Weather Widgets
  • user-avatar
    Login

    Hourly Weather Bregenz

    Today, 27 June, Tuesday

    Time Temperature Precipitation Wind Pressure Humidity
    00:00 +13°C° 0.9 mm 1 mps 645 mmHg 94%
    01:00 +13°C° 0 mm 1 mps 645 mmHg 95%
    02:00 +12°C° 0.5 mm 1 mps 645 mmHg 95%
    03:00 +12°C° 0.5 mm 1 mps 645 mmHg 95%
    04:00 +12°C° 0.5 mm 1 mps 645 mmHg 95%
    05:00 +13°C° 0.1 mm 1 mps 645 mmHg 93%
    06:00 +14°C° 0.1 mm 1 mps 645 mmHg 92%
    07:00 +15°C° 0.1 mm 1 mps 645 mmHg 91%
    08:00 +18°C° 0.1 mm 1 mps 645 mmHg 81%
    09:00 +20°C° 0.1 mm 1 mps 646 mmHg 71%
    10:00 +22°C° 0.1 mm 1 mps 646 mmHg 61%
    11:00 +22°C° 0.4 mm 1 mps 646 mmHg 60%
    12:00 +23°C° 0.4 mm 1 mps 646 mmHg 59%
    13:00 +23°C° 0.4 mm 1 mps 645 mmHg 58%
    14:00 +23°C° 0.7 mm 1 mps 645 mmHg 60%
    15:00 +23°C° 0.7 mm 1 mps 645 mmHg 62%
    16:00 +23°C° 0.7 mm 1 mps 645 mmHg 63%
    17:00 +22°C° 0.7 mm 1 mps 644 mmHg 71%
    18:00 +21°C° 0.7 mm 1 mps 644 mmHg 78%
    19:00 +20°C° 0.7 mm 1 mps 643 mmHg 86%
    20:00 +18°C° 0.4 mm 1 mps 643 mmHg 87%
    21:00 +15°C° 0.4 mm 1 mps 642 mmHg 89%
    22:00 +13°C° 0.4 mm 1 mps 642 mmHg 91%
    23:00 +13°C° 0.2 mm 2 mps 641 mmHg 91%

    Tomorrow, 28 June, Wednesday

    Time Temperature Precipitation Wind Pressure Humidity
    00:00 +13°C° 0.2 mm 2 mps 641 mmHg 91%
    01:00 +13°C° 0.2 mm 2 mps 641 mmHg 91%
    02:00 +12°C° 0.1 mm 2 mps 640 mmHg 91%
    03:00 +12°C° 0.1 mm 2 mps 640 mmHg 91%
    04:00 +12°C° 0.1 mm 2 mps 639 mmHg 91%
    05:00 +13°C° 0.4 mm 2 mps 639 mmHg 89%
    06:00 +14°C° 0.4 mm 2 mps 640 mmHg 88%
    07:00 +15°C° 0.4 mm 2 mps 640 mmHg 87%
    08:00 +16°C° 0.8 mm 2 mps 640 mmHg 85%
    09:00 +16°C° 0.8 mm 2 mps 640 mmHg 84%
    10:00 +16°C° 0.8 mm 2 mps 640 mmHg 82%
    11:00 +16°C° 1.2 mm 2 mps 640 mmHg 83%
    12:00 +18°C° 1.2 mm 1 mps 639 mmHg 83%
    13:00 +18°C° 1.2 mm 1 mps 639 mmHg 83%
    14:00 +18°C° 1.2 mm 1 mps 639 mmHg 84%
    15:00 +18°C° 1.2 mm 1 mps 639 mmHg 84%
    16:00 +16°C° 1.2 mm 1 mps 638 mmHg 85%
    17:00 +16°C° 1.6 mm 1 mps 638 mmHg 89%
    18:00 +15°C° 1.6 mm 1 mps 637 mmHg 92%
    19:00 +14°C° 1.6 mm 1 mps 636 mmHg 96%
    20:00 +13°C° 1.2 mm 1 mps 636 mmHg 96%
    21:00 +12°C° 1.2 mm 1 mps 636 mmHg 97%
    22:00 +11°C° 1.2 mm 1 mps 636 mmHg 98%
    23:00 +11°C° 1.2 mm 1 mps 636 mmHg 98%

    Day after tomorrow, 29 June, Thursday

    Time Temperature Precipitation Wind Pressure Humidity
    00:00 +11°C° 1.2 mm 1 mps 636 mmHg 98%
    01:00 +10°C° 1.2 mm 2 mps 635 mmHg 98%
    02:00 +10°C° 1.9 mm 2 mps 635 mmHg 98%
    03:00 +9°C° 1.9 mm 2 mps 635 mmHg 98%
    04:00 +9°C° 1.9 mm 3 mps 635 mmHg 97%
    05:00 +9°C° 0.7 mm 3 mps 636 mmHg 97%
    06:00 +9°C° 0.7 mm 2 mps 636 mmHg 97%
    07:00 +9°C° 0.7 mm 2 mps 636 mmHg 97%
    08:00 +9°C° 0.7 mm 2 mps 636 mmHg 96%
    09:00 +10°C° 0.7 mm 2 mps 637 mmHg 95%
    10:00 +10°C° 0.7 mm 2 mps 637 mmHg 94%
    11:00 +10°C° 0.7 mm 2 mps 637 mmHg 92%
    12:00 +10°C° 0.7 mm 3 mps 637 mmHg 90%
    13:00 +10°C° 0.7 mm 3 mps 637 mmHg 88%
    14:00 +10°C° 0.7 mm 3 mps 638 mmHg 88%
    15:00 +10°C° 0.7 mm 3 mps 638 mmHg 88%
    16:00 +10°C° 0.7 mm 3 mps 638 mmHg 88%
    17:00 +9°C° 1.1 mm 3 mps 638 mmHg 90%
    18:00 +8°C° 1.1 mm 2 mps 638 mmHg 92%
    19:00 +8°C° 1.1 mm 2 mps 638 mmHg 94%
    20:00 +7°C° 1.1 mm 2 mps 639 mmHg 94%
    21:00 +7°C° 1.1 mm 2 mps 639 mmHg 95%
    22:00 +6°C° 1.1 mm 2 mps 639 mmHg 96%
    23:00 +6°C° 0.4 mm 2 mps 639 mmHg 96%

    30 June, Friday

    Time Temperature Precipitation Wind Pressure Humidity
    00:00 +6°C° 0.4 mm 2 mps 640 mmHg 95%
    01:00 +5°C° 0.4 mm 2 mps 640 mmHg 95%
    02:00 +5°C° 0.2 mm 2 mps 640 mmHg 95%
    03:00 +5°C° 0.2 mm 2 mps 640 mmHg 94%
    04:00 +5°C° 0.2 mm 1 mps 640 mmHg 94%
    05:00 +7°C° 0.2 mm 1 mps 640 mmHg 91%
    06:00 +8°C° 0.2 mm 1 mps 641 mmHg 89%
    07:00 +9°C° 0.2 mm 1 mps 641 mmHg 87%
    08:00 +10°C° 0.4 mm 2 mps 642 mmHg 80%
    09:00 +12°C° 0.4 mm 2 mps 642 mmHg 73%
    10:00 +13°C° 0.4 mm 3 mps 643 mmHg 65%
    11:00 +13°C° 0.5 mm 3 mps 643 mmHg 64%
    12:00 +14°C° 0.5 mm 3 mps 643 mmHg 62%
    13:00 +14°C° 0.5 mm 3 mps 643 mmHg 61%
    14:00 +14°C° 0.9 mm 3 mps 643 mmHg 65%
    15:00 +13°C° 0.9 mm 3 mps 643 mmHg 70%
    16:00 +13°C° 0.9 mm 3 mps 643 mmHg 74%
    17:00 +11°C° 1 mm 3 mps 643 mmHg 80%
    18:00 +10°C° 1 mm 2 mps 642 mmHg 86%
    19:00 +9°C° 1 mm 2 mps 642 mmHg 92%
    20:00 +8°C° 0.3 mm 2 mps 643 mmHg 92%
    21:00 +7°C° 0.3 mm 2 mps 643 mmHg 92%
    22:00 +6°C° 0.3 mm 2 mps 643 mmHg 91%
    23:00 +6°C° 0.2 mm 2 mps 643 mmHg 91%

    1 July, Saturday

    Time Temperature Precipitation Wind Pressure Humidity
    00:00 +6°C° 0.2 mm 2 mps 643 mmHg 90%
    01:00 +6°C° 0.2 mm 2 mps 643 mmHg 90%
    02:00 +5°C° 0 mm 2 mps 643 mmHg 89%
    03:00 +5°C° 0 mm 2 mps 643 mmHg 89%
    04:00 +4°C° 0 mm 2 mps 642 mmHg 88%
    05:00 +6°C° 0 mm 2 mps 643 mmHg 85%
    06:00 +9°C° 0 mm 1 mps 643 mmHg 82%
    07:00 +10°C° 0 mm 1 mps 644 mmHg 79%
    08:00 +12°C° 0 mm 2 mps 644 mmHg 69%
    09:00 +14°C° 0 mm 2 mps 645 mmHg 59%
    10:00 +16°C° 0 mm 3 mps 646 mmHg 49%
    11:00 +16°C° 0.1 mm 3 mps 646 mmHg 52%
    12:00 +15°C° 0.1 mm 4 mps 646 mmHg 54%
    13:00 +15°C° 0.1 mm 4 mps 646 mmHg 57%
    14:00 +15°C° 0.4 mm 4 mps 646 mmHg 63%
    15:00 +14°C° 0.4 mm 4 mps 646 mmHg 70%
    16:00 +13°C° 0.4 mm 4 mps 646 mmHg 76%
    17:00 +12°C° 0.4 mm 3 mps 646 mmHg 81%
    18:00 +11°C° 0.4 mm 3 mps 646 mmHg 86%
    19:00 +10°C° 0.4 mm 3 mps 646 mmHg 92%
    20:00 +9°C° 0.2 mm 2 mps 646 mmHg 94%
    21:00 +8°C° 0.2 mm 2 mps 646 mmHg 96%
    22:00 +7°C° 0.2 mm 1 mps 646 mmHg 98%
    23:00 +7°C° 0.2 mm 1 mps 647 mmHg 98%

    2 July, Sunday

    Time Temperature Precipitation Wind Pressure Humidity
    00:00 +7°C° 0.2 mm 1 mps 647 mmHg 98%
    01:00 +7°C° 0.2 mm 1 mps 647 mmHg 98%
    02:00 +8°C° 0.4 mm 1 mps 647 mmHg 98%
    03:00 +8°C° 0.4 mm 1 mps 647 mmHg 98%
    04:00 +8°C° 0.4 mm 1 mps 647 mmHg 97%
    05:00 +8°C° 0.4 mm 1 mps 647 mmHg 97%
    06:00 +9°C° 0.4 mm 1 mps 648 mmHg 96%
    07:00 +9°C° 0.4 mm 1 mps 648 mmHg 96%
    08:00 +10°C° 0.2 mm 1 mps 648 mmHg 94%
    09:00 +10°C° 0.2 mm 1 mps 648 mmHg 92%
    10:00 +11°C° 0.2 mm 1 mps 649 mmHg 91%
    11:00 +12°C° 0.1 mm 2 mps 649 mmHg 83%
    12:00 +14°C° 0.1 mm 2 mps 649 mmHg 75%
    13:00 +16°C° 0.1 mm 2 mps 650 mmHg 67%
    14:00 +16°C° 0.1 mm 2 mps 650 mmHg 66%
    15:00 +16°C° 0.1 mm 3 mps 650 mmHg 65%
    16:00 +16°C° 0.1 mm 3 mps 650 mmHg 64%
    17:00 +14°C° 0.1 mm 3 mps 650 mmHg 71%
    18:00 +13°C° 0.1 mm 3 mps 649 mmHg 78%
    19:00 +12°C° 0.1 mm 3 mps 649 mmHg 85%
    20:00 +12°C° 0.3 mm 2 mps 649 mmHg 89%
    21:00 +10°C° 0.3 mm 2 mps 649 mmHg 93%
    22:00 +9°C° 0.3 mm 2 mps 650 mmHg 97%
    23:00 +9°C° 0.6 mm 2 mps 649 mmHg 97%
    Show more